User: anonymous
Location: Albany
(35.0000°S, 118.0000°E)
Time: 10:28:22
(UTC-04:00)
Language:

ADEOS Rocket - Orbit

View from above orbital plane
View from above orbital plane
View from above satellite
View from above satellite

Ground track
Ground track

The orbit data is extracted from the following two-line orbital elements,

1 24279U 96046C   14112.81914253  .00000009  00000-0  57953-4 0  6495
2 24279 098.7513 187.2818 0299663 346.1370 149.1097 13.46975221869232
Epoch (UTC): 22 April 2014 19:39:33
Eccentricity: 0.0299663
inclination: 98.7513°
perigee height: 860 km
apogee height: 1307 km
right ascension of ascending node: 187.2818°
argument of perigee: 346.1370°
revolutions per day: 13.46975221
mean anomaly at epoch: 149.1097°
orbit number at epoch: 86923

The dashed part of the orbit path shows where the satellite is in the earth's shadow,  

DLR